Location: Barenton-Cel
(49.6425°N, 3.6524°E)
Time: 23:08:18
(UTC+00:00)

Daily predictions for brighter satellites

Satellite Brightness Start Highest point End
(mag) Time Altitude Azimuth Time Altitude Azimuth Time Altitude Azimuth
MOS 1 4.4 20:06:36 10° SSE 20:12:17 85° ENE 20:17:58 10° NNW
Cosmos 1110 Rocket 4.3 20:11:02 10° NNW 20:16:19 61° ENE 20:21:34 10° SE
Cosmos 1378 4.3 20:13:34 10° SSW 20:16:41 39° WNW 20:19:48 10° N
SeaSat 1 4.3 20:13:28 10° SSW 20:17:34 26° WSW 20:21:42 10° NW
Cosmos 1726 2.4 20:15:14 10° N 20:18:11 37° ENE 20:21:07 10° SE
USA 306 2.6 20:16:42 10° WNW 20:20:27 82° SSW 20:24:21 10° ESE
USA 59 Rocket 1.3 20:17:45 10° NNW 20:20:58 29° NE 20:25:03 10° E
Lacrosse 4 Rocket 3.6 20:18:54 10° N 20:21:37 17° NE 20:24:20 10° ENE
Tsikada Rocket 4.1 20:18:02 10° S 20:24:14 89° WNW 20:30:34 10° N
Cosmos 1943 3.3 20:21:18 10° S 20:26:50 56° ESE 20:32:22 10° NE
IRS-1C Rocket 4.1 20:22:33 10° SSE 20:27:49 83° ENE 20:33:06 10° NNW
Okean 3 Rocket 3.6 20:23:40 10° N 20:28:04 73° ENE 20:32:25 10° SSE
Cosmos 1842 Rocket 3.7 20:24:12 10° S 20:28:32 56° E 20:32:51 10° NNE
Spot 2 Rocket 3.9 20:25:32 10° SE 20:30:23 51° ENE 20:35:17 10° N
ISS -2.9 20:27:45 10° W 20:30:54 37° SSW 20:33:57 11° SE
Resurs 01 Rocket 3.6 20:27:16 10° SSW 20:31:02 27° W 20:34:50 10° NW
IRS-1A Rocket 4.3 20:25:56 10° SSE 20:31:32 84° ENE 20:37:06 10° NNW
ARGOS Delta rocket 4.0 20:28:03 10° SSE 20:32:59 67° ENE 20:37:41 10° N
NOSS 2-1 (D) 4.4 20:32:20 10° NNW 20:35:43 37° NE 20:40:08 10° ESE
Cosmos 1340 3.9 20:36:37 10° NNE 20:39:28 24° ENE 20:42:01 11° ESE
Sich 1 3.8 20:37:05 10° N 20:41:11 38° ENE 20:44:54 12° SE
SPOT 3 Rocket 3.8 20:36:13 10° SE 20:41:13 56° ENE 20:46:15 10° N
Okean O Rocket 3.7 20:37:36 10° SSW 20:41:17 25° W 20:44:59 10° NW
USA 307 0.0 20:42:48 10° WNW 20:43:28 40° W 20:43:28 40° W
Cosmos 2221 3.7 20:40:57 10° SSW 20:45:06 45° WNW 20:49:17 10° N
Meteor 1-27 Rocket 4.2 20:41:22 10° SSE 20:46:27 40° E 20:51:36 10° NNE
USA 281 3.6 20:43:30 10° SE 20:49:49 56° NE 20:56:15 10° NNW
Ariane Rocket 3.0 20:48:21 11° SSE 20:53:18 76° ENE 20:58:24 10° NNW
GEOS 3 Rocket 4.5 20:53:56 10° ENE 20:58:21 28° ESE 21:02:42 10° S
Terra 1.9 20:59:36 10° S 21:04:14 76° WSW 21:08:58 10° NNW
Cosmos 1340 Rocket 3.3 21:03:14 14° SSE 21:06:18 42° E 21:10:05 10° NNE
Cosmos 1452 Rocket 4.0 21:01:22 10° NNW 21:06:30 55° WSW 21:11:26 11° S
MOS 1 Rocket 3.6 21:02:02 13° SSE 21:06:43 81° ENE 21:12:07 10° NNW
Cosmos 1743 Rocket 3.7 21:03:07 10° N 21:07:30 62° ENE 21:10:56 16° SSE
USA 234 4.3 21:05:04 10° ENE 21:11:18 48° N 21:17:30 10° WNW
NOSS 2-1 (C) 3.6 21:08:37 10° NW 21:12:18 67° NE 21:16:11 16° SE
Lacrosse 5 rocket 3.4 21:08:52 10° WNW 21:12:40 30° N 21:16:23 10° ENE
Helios 1B 4.5 21:08:42 10° NNE 21:13:02 78° ESE 21:17:20 10° S
ARIANE 5 R/B 4.2 21:12:44 12° ESE 21:15:42 23° ENE 21:19:06 10° N
Cosmos 1408 Rocket 4.0 21:12:49 10° NNW 21:17:14 63° W 21:21:17 12° S
ERS-1 Rocket 3.6 21:12:42 10° S 21:17:36 52° W 21:22:31 10° NNW
Meteor 2-10 4.1 21:14:12 10° NNW 21:19:46 86° W 21:24:13 15° S
USA 245 4.2 21:22:29 11° SSW 21:24:07 21° W 21:26:01 10° NW
Spot 1 4.0 21:20:39 10° NNE 21:24:43 62° ESE 21:28:04 15° S
SL-8 R/B 3.6 21:20:22 10° WSW 21:25:07 76° S 21:29:53 10° E
Cosmos 1626 3.5 21:24:36 17° ESE 21:25:20 18° E 21:27:35 10° NE
Nadezhda 4 Rocket 4.0 21:21:17 11° S 21:27:09 73° E 21:33:25 10° NNE
Cosmos 614 Rocket 4.3 21:25:40 15° S 21:29:38 46° ESE 21:34:37 10° NNE
Meteor 1-19 Rocket 4.3 21:29:01 10° S 21:34:55 89° W 21:40:40 10° NNE
Cosmos 1603 4.0 21:31:07 10° SW 21:36:46 72° WNW 21:42:31 10° NNE
Cosmos 1833 Rocket 4.1 21:35:25 16° ESE 21:37:12 19° E 21:41:01 10° ENE
Okean 1 3.9 21:34:15 10° SSW 21:38:02 53° WNW 21:41:52 10° N
Cosmos 2369 Rocket 4.4 21:35:05 10° WNW 21:38:27 16° W 21:41:50 10° SW
Cosmos 1151 Rocket 3.0 21:37:10 18° S 21:40:20 76° E 21:44:41 10° NNE
Cosmos 1975 3.0 21:37:13 10° N 21:41:08 59° ENE 21:43:09 26° SSE
Cosmos 1328 Rocket 4.2 21:45:12 25° SE 21:47:10 39° E 21:51:11 10° NNE
Meteor 2-17 Rocket 4.5 21:41:43 11° S 21:47:33 84° W 21:53:39 10° N
Cosmos 1302 Rocket 4.4 21:44:09 10° NNW 21:49:14 56° WSW 21:52:42 20° S
Cosmos 1992 Rocket 4.0 21:44:43 10° NNW 21:49:58 80° ENE 21:53:10 24° SSE
Cosmos 1726 4.5 21:49:34 10° WNW 21:51:01 13° W 21:52:27 10° WSW
USA 306 4.3 21:50:54 10° W 21:53:45 20° SW 21:54:47 18° SSW
Cosmos 1656 3.6 21:49:11 10° NNW 21:54:41 78° ENE 21:58:06 24° SE
Cosmos 1766 4.0 21:54:19 10° N 21:57:52 38° ENE 21:59:18 27° ESE
Cosmos 1805 3.3 21:56:03 10° NNW 21:59:44 64° W 22:01:33 28° S
Lacrosse 4 Rocket 1.3 21:56:23 10° NNW 22:00:29 88° ENE 22:02:26 30° SE
Cosmos 1733 4.5 21:57:57 10° NNW 22:01:04 30° W 22:03:12 16° SW
Cosmos 1470 Rocket 4.1 21:57:48 10° N 22:02:07 46° ENE 22:04:11 27° SE
H-2A R/B 3.3 22:02:16 24° ESE 22:04:18 40° ENE 22:08:19 10° N
IRIDIUM 104 4.3 22:00:55 10° N 22:06:11 87° W 22:09:22 24° S
Cosmos 2026 Rocket 4.0 22:02:10 20° S 22:06:39 77° E 22:12:54 10° NNE
Cosmos 1470 4.2 22:04:54 10° NNE 22:08:00 25° ENE 22:09:19 20° ESE
Cosmos 1633 Rocket 3.0 22:04:55 10° N 22:09:21 83° ENE 22:11:28 31° SSE
USA 59 Rocket 0.6 22:06:53 10° NW 22:10:44 48° SW 22:13:06 27° S
Landsat 5 4.2 22:07:40 10° N 22:11:16 44° WNW 22:14:26 13° SW
Cosmos 1666 Rocket 3.5 22:07:07 10° NNW 22:11:27 78° W 22:13:32 30° S
NOSS 3-3 (A) 3.9 22:08:04 18° SSW 22:11:59 54° ESE 22:18:08 10° NE
Cosmos 1627 Rocket 4.5 22:07:49 20° S 22:12:20 83° E 22:18:38 10° N
NOSS 2-1 (E) 4.2 22:08:59 10° NW 22:12:49 46° SW 22:15:08 27° S
Cosmos 1340 4.3 22:10:52 10° NW 22:13:38 23° W 22:15:25 16° SW
Orbus 7S? 4.1 22:13:47 31° SE 22:13:47 31° SE 22:16:31 10° ENE
IRIDIUM 114 4.4 22:10:05 10° N 22:15:19 73° W 22:18:30 24° S
Cosmos 1140 Rocket 4.5 22:19:18 25° SE 22:20:56 30° E 22:25:27 10° NE
Cosmos 220 Rocket 4.1 22:18:09 18° SSW 22:21:19 73° WNW 22:25:38 10° NNE
CZ-2C R/B 3.6 22:17:00 10° NNE 22:21:31 74° ESE 22:23:38 31° S
Cosmos 44 Rocket 3.7 22:17:21 10° NW 22:22:16 58° NE 22:25:16 22° ESE
Cosmos 1818 3.5 22:21:17 16° SSW 22:25:43 73° SE 22:31:12 10° NE
Cosmos 1933 Rocket 4.2 22:23:04 10° N 22:27:15 43° ENE 22:29:00 29° SE
NOSS 3-4 (A) 4.2 22:20:48 10° NW 22:27:23 60° NE 22:34:26 12° ESE
NOSS 3-4 (C) 4.2 22:20:54 10° NW 22:27:29 59° NE 22:34:34 12° ESE
ALOS 2 3.5 22:26:22 24° ESE 22:28:24 39° ENE 22:32:29 10° N
BREEZE-M DEB (TANK) 4.1 22:31:07 29° ESE 22:31:07 29° ESE 22:35:26 10° ENE
Cosmos 1697 Rocket 2.9 22:26:36 10° NNW 22:32:14 67° ENE 22:35:28 26° SE
USA 281 4.2 22:30:22 18° SSW 22:34:33 37° WSW 22:40:35 10° NW
Cosmos 1553 Rocket 3.9 22:30:31 10° N 22:36:38 84° E 22:39:56 29° SSE
GEOS 3 Rocket 3.9 22:31:32 10° NE 22:36:43 68° NW 22:41:47 10° SW
Meteor 2-4 Rocket 4.2 22:33:18 17° SSW 22:37:53 63° WNW 22:43:48 10° N
Cosmos 1674 2.7 22:37:26 45° SE 22:37:58 51° E 22:41:23 10° NNE
Cosmos 1607 4.4 22:37:14 28° S 22:40:06 44° ESE 22:46:12 10° NE
Cosmos 1980 Rocket 3.1 22:35:03 10° NNW 22:40:29 42° NE 22:44:37 17° ESE
NOSS 3-3 (C) 3.7 22:38:08 16° SSW 22:42:36 79° SE 22:49:06 10° NE
Terra 4.5 22:41:56 10° W 22:42:39 10° W 22:43:21 10° WNW
MINOTAUR 4 R/B 4.1 22:41:03 10° N 22:43:58 54° WNW 22:44:36 43° WSW
Cosmos 1066 Rocket 4.3 22:41:55 27° S 22:45:18 89° W 22:51:14 10° NNE
Cosmos 2285 Rocket 4.5 22:44:29 29° SSE 22:47:14 45° ESE 22:53:13 10° NNE
Cosmos 407 Rocket 4.3 22:49:43 30° SE 22:51:20 37° ESE 22:56:08 10° NE
Lacrosse 5 rocket 2.8 22:47:52 10° NW 22:51:49 37° NNE 22:55:39 10° E
ARIANE 5 R/B 3.2 22:50:12 30° SSW 22:51:52 45° W 22:56:01 10° NNW
Cosmos 1908 3.4 22:50:06 10° N 22:53:36 51° ENE 22:54:20 42° ESE
USA 234 3.9 22:47:22 10° E 22:53:44 56° NNE 23:00:06 10° WNW
Cosmos 1269 Rocket 4.3 22:54:32 20° SW 22:58:13 66° WNW 23:03:30 10° NNE
Cosmos 1626 3.4 22:57:24 21° WSW 22:58:40 28° WNW 23:01:31 10° NNW
Cosmos 2251 Rocket 4.1 23:01:47 32° SE 23:03:27 42° ESE 23:08:23 10° NE
SL-8 R/B 3.6 23:02:43 10° W 23:07:27 67° SSW 23:10:29 22° ESE
Cosmos 1707 2.4 23:09:21 58° S 23:10:01 84° E 23:13:41 10° N
BREEZE-M DEB (TANK) 3.2 23:08:44 10° W 23:14:09 15° ESE 23:15:28 10° ESE
Cosmos 1441 Rocket 3.2 23:10:18 10° N 23:13:51 61° ENE 23:14:30 50° SE
SL-16 R/B 4.2 23:09:54 10° NNW 23:14:33 25° NE 23:19:09 10° E
Cosmos 2266 Rocket 4.0 23:12:28 32° S 23:15:29 74° E 23:21:46 10° NNE
Spot 4 4.1 23:13:59 36° SSW 23:15:43 57° W 23:20:26 10° NNW
Cosmos 1842 3.4 23:15:47 44° SW 23:16:42 61° WNW 23:20:22 10° N
Cosmos 1655 Rocket 4.3 23:15:56 30° SSE 23:18:59 57° E 23:25:14 10° NNE
Cosmos 1833 Rocket 2.7 23:17:03 25° SW 23:20:27 79° WNW 23:26:06 10° NNE
Cosmos 2082 Rocket 2.9 23:23:06 30° SSE 23:24:57 39° ESE 23:30:13 10° NE
Cosmos 1300 3.4 23:26:41 10° N 23:30:05 40° ENE 23:30:52 34° ESE
Cosmos 1515 Rocket 4.5 23:28:42 26° SW 23:30:37 40° WNW 23:34:44 10° N
KORONAS-FOTON 4.4 23:30:14 36° WSW 23:31:13 45° WNW 23:34:49 10° N
Meteor 1-22 Rocket 4.0 23:26:13 10° NNW 23:31:34 86° ENE 23:33:54 36° SSE
Cosmos 2228 Rocket 3.8 23:31:44 34° SE 23:33:02 43° E 23:37:19 10° NNE
Meteor 1-15 Rocket 4.1 23:30:08 10° NNW 23:35:49 87° W 23:38:17 35° S
SL-08 ROCKET BODY 4.4 23:33:08 32° S 23:36:13 88° W 23:42:27 10° N
H-2A R/B 2.3 23:32:47 10° NNE 23:37:11 58° ESE 23:38:23 42° SSE
Lacrosse 4 Rocket 3.7 23:36:37 10° W 23:38:08 12° WSW 23:38:21 12° WSW
Cosmos 1733 Rocket 3.5 23:34:09 10° N 23:38:24 52° ENE 23:39:58 34° SE
H-2A R/B 4.0 23:38:15 21° WSW 23:39:24 24° W 23:42:52 10° NW
Cosmos 1869 Rocket 3.8 23:36:59 10° NNW 23:41:16 58° W 23:42:30 41° SSW
Cosmos 1470 4.0 23:40:11 10° NNW 23:43:21 27° W 23:43:59 26° WSW
Cosmos 1400 Rocket 2.7 23:54:09 51° S 23:55:01 75° E 23:59:01 10° NNE
GP-B 3.0 23:51:01 10° N 23:55:27 82° W 23:56:49 44° SSW
